Location: �quirre
(50.4736°N, 2.2351°E)
Time: 04:09:47
(UTC+00:00)

Resurs 1-4 Rocket - Pass Details

Date: 07 August 2020
Orbit: 799 x 815 km, 98.6° (Epoch: 19 September)

Event Time Altitude Azimuth Distance (km) Brightness Sun altitude
Rises 01:29:27 0° 16° (NNE) 3,337 6.9 -20.2°
Reaches altitude 10° 01:31:48 10° 18° (NNE) 2,399 5.8 -20.0°
Maximum altitude 01:37:07 74° 104° (ESE) 841 2.2 -19.7°
Enters shadow 01:39:24 35° 181° (S) 1,284 2.7 -19.5°
